Location: Cudham
(51.3000°N, 0.0667°E)
Time: 05:25:18
(UTC+00:00)

Cosmos 1470 - Pass Details

Date: 19 May 2025
Orbit: 455 x 466 km, 82.5° (Epoch: 13 June)

Event Time Altitude Azimuth Distance (km) Brightness Sun altitude
Rises 22:57:52 0° 353° (N) 2,524 7.9 -17.6°
Reaches altitude 10° 23:00:00 10° 359° (N) 1,643 6.5 -17.7°
Maximum altitude 23:03:30 50° 76° (ENE) 613 3.0 -17.8°
Enters shadow 23:04:24 39° 122° (ESE) 726 3.1 -17.8°
